User: anonymous   Login
Location: Roanoke
(37.2710°N, 79.9420°W)
Time: 07:33:14
(UTC-05:00)
Language:

FENGYUN 3A - Orbit

View from above orbital plane
View from above orbital plane
View from above satellite
View from above satellite

Ground track
Ground track

The orbit data is extracted from the following two-line orbital elements,

1 32958U 08026A   15065.06090375  .00000068  00000-0  52001-4 0  9996
2 32958 098.5183 119.5676 0009546 172.8765 187.2545 14.19531434350991
Epoch (UTC): 06 March 2015 01:27:42
Eccentricity: 0.0009546
inclination: 98.5183°
perigee height: 820 km
apogee height: 834 km
right ascension of ascending node: 119.5676°
argument of perigee: 172.8765°
revolutions per day: 14.19531434
mean anomaly at epoch: 187.2545°
orbit number at epoch: 35099

The dashed part of the orbit path shows where the satellite is in the earth's shadow,  

DLR